Weather History for KRAL - July, 2014

Change the Weather History Date:

Friday, July 18, 2014

  Actual Average Record
Temperature  
Mean Temperature 74 °F 79 °F  
Max Temperature 86 °F 94 °F 112 °F (1936)
Min Temperature 61 °F 64 °F 50 °F (1923)
Degree Days  
Heating Degree Days 0 0  
Month to date heating degree days 0 0  
Since 1 June heating degree days 0 2  
Since 1 July heating degree days 0 0  
Cooling Degree Days 9 14  
Month to date cooling degree days 262 227  
Year to date cooling degree days 927 624  
Since 1 June cooling degree days 549 447  
Growing Degree Days 22 (Base 50)    
Moisture  
Dew Point 57 °F    
Average Humidity 61    
Maximum Humidity 84    
Minimum Humidity 37    
Precipitation  
Precipitation 0.00 in 0.00 in 0.48 in (2015)
Month to date precipitation 0.00 0.02  
Year to date precipitation 1.72 9.21  
Since 1 July precipitation 0.00  
Snow  
Snow 0.00 in - - ()
Month to date snowfall 0.0  
Year to date snowfall 0.0  
Snow Depth 0.00 in    
Sea Level Pressure  
Sea Level Pressure 29.95 in    
Wind  
Wind Speed 4 mph (West)    
Max Wind Speed 14 mph    
Max Gust Speed 20 mph    
Visibility 10 miles    
Events      
T = Trace of Precipitation, MM = Missing Value Source: NWS Daily Summary

Daily Weather History Graph

Daily Weather History Graph

Search for Another Location

Airport or City:

Trip Planner

Search our weather history database for the weather conditions in past years. The results will help you decide how hot, cold, wet, or windy it might be!

Date:

Astronomy

Jul. 18, 2014 Rise Set
Actual Time 5:51 AM PDT 8:00 PM PDT
Civil Twilight 5:23 AM PDT 8:28 PM PDT
Nautical Twilight 4:48 AM PDT 9:02 PM PDT
Astronomical Twilight 4:11 AM PDT 9:39 PM PDT
Moon No Moon Rise 12:51 PM PDT (7/18)
Length of Visible Light 15h 04m
Length of Day
14h 08m
Waning Gibbous, 53% of the Moon is Illuminated
Jul 18
Waning Gibbous
Jul 18
Last Quarter
Jul 26
New
Aug 3
First Quarter
Aug 10
Full

Hourly Weather History & Observations

Time (PDT) Temp. Heat Index Dew Point Humidity Pressure Visibility Wind Dir Wind Speed Gust Speed Precip Events Conditions
12:53 AM 66.0 °F - 55.0 °F 68% 29.97 in 10.0 mi West 3.5 mph - N/A   Clear
1:53 AM 64.0 °F - 55.9 °F 75% 29.97 in 10.0 mi West 3.5 mph - N/A   Clear
2:53 AM 64.0 °F - 57.0 °F 78% 29.96 in 10.0 mi West 3.5 mph - N/A   Clear
3:53 AM 63.0 °F - 57.0 °F 81% 29.96 in 10.0 mi West 3.5 mph - N/A   Clear
4:53 AM 62.1 °F - 57.0 °F 84% 29.96 in 10.0 mi Calm Calm - N/A   Clear
5:53 AM 61.0 °F - 55.9 °F 83% 29.97 in 10.0 mi Calm Calm - N/A   Clear
7:53 AM 64.0 °F - 57.0 °F 78% 30.00 in 10.0 mi Calm Calm - N/A   Clear
8:53 AM 66.0 °F - 57.0 °F 73% 30.00 in 10.0 mi West 3.5 mph - N/A   Scattered Clouds
9:53 AM 68.0 °F - 57.0 °F 68% 30.00 in 10.0 mi Calm Calm - N/A   Clear
10:53 AM 72.0 °F - 57.0 °F 59% 30.00 in 10.0 mi Variable 4.6 mph - N/A   Clear
11:53 AM 77.0 °F - 57.0 °F 50% 29.99 in 10.0 mi NNW 5.8 mph - N/A   Clear
12:53 PM 78.1 °F - 57.0 °F 48% 29.97 in 10.0 mi Variable 5.8 mph - N/A   Mostly Cloudy
1:53 PM 79.0 °F - 57.0 °F 47% 29.95 in 10.0 mi Variable 4.6 mph - N/A   Clear
2:53 PM 82.9 °F 82.0 °F 55.0 °F 38% 29.92 in 10.0 mi NW 6.9 mph - N/A   Clear
3:53 PM 84.9 °F 83.6 °F 55.0 °F 36% 29.90 in 10.0 mi West 10.4 mph - N/A   Mostly Cloudy
4:53 PM 84.0 °F 83.0 °F 55.9 °F 38% 29.88 in 10.0 mi West 10.4 mph - N/A   Clear
5:53 PM 80.1 °F 80.4 °F 57.0 °F 45% 29.88 in 10.0 mi West 12.7 mph 19.6 mph N/A   Clear
6:53 PM 77.0 °F - 57.0 °F 50% 29.89 in 10.0 mi West 11.5 mph 19.6 mph N/A   Clear
7:53 PM 73.0 °F - 57.0 °F 57% 29.90 in 10.0 mi West 10.4 mph - N/A   Clear
8:53 PM 70.0 °F - 57.0 °F 63% 29.91 in 10.0 mi West 8.1 mph - N/A   Clear
9:53 PM 69.1 °F - 57.0 °F 65% 29.93 in 10.0 mi West 5.8 mph - N/A   Clear
10:53 PM 68.0 °F - 57.0 °F 68% 29.93 in 10.0 mi West 3.5 mph - N/A   Clear
11:53 PM 66.9 °F - 57.0 °F 70% 29.93 in 10.0 mi West 4.6 mph - N/A   Clear